Location: Gulgong NSW 2852, Australia
(32.2976°S, 149.5548°E)
Time: 13:36:54
(UTC+11:00)

Envisat - Pass Details

Date: 12 December 2021
Orbit: 764 x 766 km, 98.2° (Epoch: 27 January)

Event Time Altitude Azimuth Distance (km) Brightness Sun altitude
Rises 05:14:11 0° 14° (NNE) 3,215 6.0 -7.1°
Reaches altitude 10° 05:16:27 10° 14° (NNE) 2,297 5.3 -6.6°
Maximum altitude 05:21:32 89° 93° (E) 776 3.1 -5.7°
Drops below altitude 10° 05:26:41 10° 192° (SSW) 2,326 5.8 -4.8°
Sets 05:29:00 0° 192° (SSW) 3,260 6.5 -4.4°
